Погода в Котласе

Поиск расширенной информации на нашем сайте:

Полезная информация:

Новости сайта



14.11.2019
Обновлён Долгосрочный прогноз погоды по России и другим странам хСССР на ноябрь-декабрь 2019 года.
Опубликованы прогностические карты: Предварительный прогноз на декабрь 2019 года, Предварительный прогноз на январь 2020 года, Предварительная схема синоптических процессов на декабрь 2019 г..

11.11.2019
Обновлены Долгосрочный прогноз погоды по России и другим странам хСССР на ноябрь-декабрь 2019 года и Предварительный прогноз на зиму 2019/2020 годов

04.11.2019
Опубликован Долгосрочный прогноз погоды по России и другим странам хСССР на ноябрь 2019 года
Сравнение прогнозируемой аномалии приземной температуры воздуха на ноябрь 2019 года по разным моделям
Предварительный прогноз на зиму 2019/2020 года




Погода в Котласе - сегодня

Время (UTC), дата Ветер
(°,м/с) 
Видим.   Явления Облачность Т
(°С)
Тd
(°С)
f(%) Тe
(°С)
Pmin
(гПа)
dP
(гПа)
Po
(мм)
O2
(г/м3)
Тmin Tmax R s Состояние
почвы
00 20.11.19 130 (ЮВ) 4000 м  слаб. ливневой снег  10/8 330 м кучево-дожд., средняя 
[Cb cap|Ac und]
-14.8 -16.8 85 -18  1049.6  0.9  781  334           
03 20.11.19 130 (ЮВ) 4000 м  слаб. ливневой снег  10/8 360 м кучево-дожд., средняя 
[Cb cap|Ac und]
-14.4 -16.4 85 -17  1049.3  -0.3  781  334  -15.3    0.2  12  равномерный
сухой снег
100% 
06 20.11.19 140 (ЮВ) 4000 м  слаб. ливневой снег  10/8 360 м кучево-дожд., средняя 
[Cb cap|Ac und]
-12.7 -14.7 85 -16  1049.8  0.3  782  332           
09 20.11.19 160 (Ю) 20000 м  {ливн. осадки}  10/8 360 м средняя 
[St|Ac und]
-10.6 -12.6 85 -14  1049.6  782  329           
12 20.11.19 170 (Ю) 20000 м  {ливн. осадки}  4/0 средняя, верхняя 
[Ac trans|Ci fib]
-11.3 -13.3 85 -13  1048.1  -1.5  780  329           
15 20.11.19 170 (Ю) 10 км    6/0 средняя, верхняя 
[Ac trans|Ci fib]
-12.2 -14.9 80 -12  1047.4  -0.6  780  330    -9.5  0.0     
18 20.11.19 150 (ЮВ) 10 км    4/0 верхняя 
[Ci fib]
-14.8 -16.8 85 -17  1047  -0.6  779  334           
21 20.11.19 180 (Ю) 10 км    3/0 верхняя 
[Ci fib]
-12.2 -14.9 80 -16  1046.1  -1  779  330           
00 21.11.19 190 (Ю) 10 км    3/0 верхняя 
[Ci fib]
-12.2 -14.9 80 -16  1044.7  -1.4  778  329           
03 21.11.19 180 (Ю) 10 км    8/0 средняя, верхняя 
[Ac trans|Ci fib]
-12.2 -14.9 80 -14  1044.1  -0.6  777  329  -16.9      12  равномерный
сухой снег
100% 
06 21.11.19 180 (Ю) 20000 м    10/10 1380 м 
[Sc]
-9.3 -11.8 82 -11  1043.2  -0.9  777  325           
09 21.11.19 180 (Ю) 20000 м    10/6 450 м средняя 
[Sc|Ac und]
-6.8 -9.2 83 -8  1042.3  -0.8  776  322           
12 21.11.19 210 (ЮЗ) 20000 м    10/10 450 м 
[Sc]
-5.2 -7.7 83 -7  1041.4  -0.9  776  319           
15 21.11.19 220 (ЮЗ) 4000 м  слаб. ливневой снег  10/8 540 м кучево-дожд., средняя, верхняя 
[Cb cap|Ac trans|Ci fib]
-4.5 -6.8 84 -6  1041  -0.4  775  318    -4.5  0.0     
18 21.11.19 180 (Ю) 4000 м  слаб. ливневой снег  10/8 570 м кучево-дожд., средняя 
[Cb cap|Ac und]
-3.5 -5.6 85 -5  1040.4  -0.6  775  317           
21 21.11.19 210 (ЮЗ) 4000 м  слаб. ливневой снег  10/8 540 м кучево-дожд., средняя 
[Cb cap|Ac und]
-2.8 -5.5 82 -4  1039.7  -0.6  774  316           
00 22.11.19 210 (ЮЗ) 10 км  {ливн. осадки}  10/8 500 м средняя 
[Sc|Ac und]
-3.2 -5.3 85 -4  1039.6  -0.2  774  316           
03 22.11.19 170 (Ю) 10 км    10/8 1050 м средняя 
[Sc|Ac und]
-3.1 -5.1 86 -4  1038.9  -0.7  774  316  -4.5    0.2  11  равномерный
сухой снег
100% 
06 22.11.19 220 (ЮЗ) 20000 м    8/0 средняя, верхняя 
[Ac trans|Ci fib]
-4.2 -6.5 84 -5  1038.4  -0.5  773  317           
09 22.11.19 200 (Ю) 20000 м    10/0 средняя, верхняя 
[Ac trans|Ci fib]
-4.1 -7.9 75 -5  1038.4  773  317           
12 22.11.19 190 (Ю) 20000 м    10/0 средняя, верхняя 
[Ac trans|Ci fib]
-5.2 -8.9 75 -8  1037  -1.3  772  318           
15 22.11.19 220 (ЮЗ) 10 км    10/0 средняя, верхняя 
[Ac trans|Ci fib]
-7.8 -11.4 75 -11  1037  -0.2  772  321    -3.1       
18 22.11.19 240 (ЮЗ) 10 км    10/8 360 м средняя 
[St|Ac und]
-8 -10.7 81 -10  1036.5  -0.5  772  321           
21 22.11.19 230 (ЮЗ) 10 км    10/10 300 м 
[St]
-7.2 -9.3 85 -10  1036.1  -0.2  772  320           
00 23.11.19 220 (ЮЗ) 10 км    10/10 420 м 
[Sc]
-6.8 -8.4 88 -8  1036.2  0.1  772  320           
Время (UTC), дата Ветер
(°,м/с) 
Видим.   Явления Облачность Т
(°С)
Тd
(°С)
f(%) Тe
(°С)
Pmin
(гПа)
dP
(гПа)
Po
(мм)
O2
(г/м3)
Тmin Tmax R s Состояние
почвы

Для получения пояснительной информации подведите курсор к названию столбца.

ПОГОДА в Котласе - архив

Всё, что Вы хотите узнать о погоде в Котласе - удобно и подробно!

Выберите нужную дату (начиная с 1 января 2019* года) и нажмите кнопку "Найти".
Будут отображены архивные сводки погоды по пункту Котлас, начиная с указанной даты.


Отображать данные в формате CSV (для использования в таблицах Excel)


Внимание! Наш архив погоды предназначен исключительно для личного некоммерческого использования в познавательных целях. Если Вам необходимы официальные справки о состоянии погоды (для производственных, юридических, коммерческих и т.п. целей), обращайтесь в органы Росгидромета.

*Примечание: данная дата относится к архиву по метеостанциям СССР (Россия, СНГ, Балтия).
Архив по метеостанциям Зарубежной Европы и Азии (кроме Китая) хранится 10 дней, по другим регионам земного шара (Китай, Африка, Америка, Австралия, Океания) - 1 день.

Котлас - район местоположения метеостанции


Название, широта, долгота, высота метеостанции:
Котлас 61.2°ш. 46.7°д. 56 м над ур. моря [Российская Федерация]

Дополнительная информация

В oтличие oт бoльшинства пoгoдных сайтoв мы публикуем пoдрoбную метеoинфoрмацию в детальнoм прoфессиoнальнoм фoрмате.

Характеристики температуры и влажнoсти вoздуха измеряются на высoте 2 м в тени вдали oт зданий и деревьев.
Скoрoсть ветра измеряется на высoте 10 м (на урoвне рoста челoвека скoрoсть ветра ниже в 1.5-2 раза). Если метеoстанция нахoдится в гoрoде или в лесу, тo скoрoсть ветра занижена на 2-4 м/с пo сравнению с oткрытым местoм. Скoрoсть ветра над акватoриями крупных рек и oзёр, а также на вершинах хoлмoв на 2-5 м/с выше, чем в oбычных услoвиях.
Атмoсфернoе давление в разных тoчках местнoсти мoжет значительнo oтличаться oт давления на метеoстанции, в зависимoсти oт услoвий рельефа (при пoдъёме на 10 м давление пoнижается примернo на 1 мм рт.ст.).